Time,TemperatureF,DewpointF,PressureIn,WindDirection,WindDirectionDegrees,WindSpeedMPH,WindSpeedGustMPH,Humidity,HourlyPrecipIn,Conditions,Clouds,dailyrainin,SoftwareType,DateUTC
2013-06-23 00:01:00,69.8,62.6,30.10,SSW,202,0.0,0.0,78,0.00,,,0.00,WUHU21623XXSP,2013-06-23 04:01:00,
2013-06-23 00:06:00,69.6,62.8,30.10,SSW,202,0.0,0.0,79,0.00,,,0.00,WUHU21623XXSP,2013-06-23 04:06:00,
2013-06-23 00:11:00,69.6,62.8,30.10,SSW,202,0.0,0.0,79,0.00,,,0.00,WUHU21623XXSP,2013-06-23 04:11:00,
2013-06-23 00:16:00,69.6,62.8,30.10,SSW,202,0.0,0.0,79,0.00,,,0.00,WUHU21623XXSP,2013-06-23 04:16:00,
2013-06-23 00:21:00,69.6,62.8,30.10,SSW,202,0.0,0.0,79,0.00,,,0.00,WUHU21623XXSP,2013-06-23 04:21:00,
2013-06-23 00:26:00,69.6,62.8,30.10,SSW,202,0.0,0.0,79,0.00,,,0.00,WUHU21623XXSP,2013-06-23 04:26:00,
2013-06-23 00:31:00,69.1,62.7,30.10,SSW,202,0.0,0.0,80,0.00,,,0.00,WUHU21623XXSP,2013-06-23 04:31:00,
2013-06-23 00:36:00,68.9,62.5,30.10,SSW,202,0.0,0.0,80,0.00,,,0.00,WUHU21623XXSP,2013-06-23 04:36:00,
2013-06-23 00:41:00,68.7,62.7,30.10,SSW,202,0.0,0.0,81,0.00,,,0.00,WUHU21623XXSP,2013-06-23 04:41:00,
2013-06-23 00:46:00,68.7,62.7,30.10,SSW,202,0.0,0.0,81,0.00,,,0.00,WUHU21623XXSP,2013-06-23 04:46:00,
2013-06-23 00:51:00,68.5,62.5,30.09,SSW,202,0.0,0.0,81,0.00,,,0.00,WUHU21623XXSP,2013-06-23 04:51:00,
2013-06-23 00:56:00,68.4,62.3,30.09,SSW,202,0.0,0.0,81,0.00,,,0.00,WUHU21623XXSP,2013-06-23 04:56:00,
2013-06-23 01:01:00,68.2,62.5,30.09,SSW,202,0.0,0.0,82,0.00,,,0.00,WUHU21623XXSP,2013-06-23 05:01:00,
2013-06-23 01:06:00,68.2,62.5,30.09,SSW,202,0.0,0.0,82,0.00,,,0.00,WUHU21623XXSP,2013-06-23 05:06:00,
2013-06-23 01:11:00,68.0,62.3,30.09,SSW,202,0.0,0.0,82,0.00,,,0.00,WUHU21623XXSP,2013-06-23 05:11:00,
2013-06-23 01:16:00,68.2,62.5,30.08,SSW,202,0.0,0.0,82,0.00,,,0.00,WUHU21623XXSP,2013-06-23 05:16:00,
2013-06-23 01:21:00,68.2,62.5,30.09,SSW,202,0.0,0.0,82,0.00,,,0.00,WUHU21623XXSP,2013-06-23 05:21:00,
2013-06-23 01:26:00,68.2,62.5,30.08,SSW,202,0.0,0.0,82,0.00,,,0.00,WUHU21623XXSP,2013-06-23 05:26:00,
2013-06-23 01:31:00,68.2,62.5,30.09,SSW,202,0.0,0.0,82,0.00,,,0.00,WUHU21623XXSP,2013-06-23 05:31:00,
2013-06-23 01:36:00,68.2,62.8,30.09,SSW,202,0.0,0.0,83,0.00,,,0.00,WUHU21623XXSP,2013-06-23 05:36:00,
2013-06-23 01:41:00,68.2,62.8,30.09,SSW,202,0.0,0.0,83,0.00,,,0.00,WUHU21623XXSP,2013-06-23 05:41:00,
2013-06-23 01:46:00,68.2,63.2,30.09,SSW,202,0.0,0.0,84,0.00,,,0.00,WUHU21623XXSP,2013-06-23 05:46:00,
2013-06-23 01:51:00,68.4,63.3,30.09,SSW,202,0.0,0.0,84,0.00,,,0.00,WUHU21623XXSP,2013-06-23 05:51:00,
2013-06-23 01:56:00,68.4,63.3,30.09,South,180,0.0,0.0,84,0.00,,,0.00,WUHU21623XXSP,2013-06-23 05:56:00,
2013-06-23 02:01:00,68.4,63.7,30.09,South,180,0.0,0.0,85,0.00,,,0.00,WUHU21623XXSP,2013-06-23 06:01:00,
2013-06-23 02:06:00,68.5,63.8,30.09,South,180,0.0,0.0,85,0.00,,,0.00,WUHU21623XXSP,2013-06-23 06:06:00,
2013-06-23 02:11:00,68.5,63.8,30.09,South,180,0.0,0.0,85,0.00,,,0.00,WUHU21623XXSP,2013-06-23 06:11:00,
2013-06-23 02:16:00,68.5,63.8,30.10,South,180,0.0,0.0,85,0.00,,,0.00,WUHU21623XXSP,2013-06-23 06:16:00,
2013-06-23 02:21:00,68.5,63.8,30.09,South,180,0.0,0.0,85,0.00,,,0.00,WUHU21623XXSP,2013-06-23 06:21:00,
2013-06-23 02:26:00,68.7,64.0,30.09,South,180,0.0,0.0,85,0.00,,,0.00,WUHU21623XXSP,2013-06-23 06:26:00,
2013-06-23 02:31:00,68.7,64.0,30.09,South,180,0.0,0.0,85,0.00,,,0.00,WUHU21623XXSP,2013-06-23 06:31:00,
2013-06-23 02:36:00,68.7,64.0,30.09,South,180,0.0,0.0,85,0.00,,,0.00,WUHU21623XXSP,2013-06-23 06:36:00,
2013-06-23 02:41:00,68.7,64.0,30.09,South,180,0.0,0.0,85,0.00,,,0.00,WUHU21623XXSP,2013-06-23 06:41:00,
2013-06-23 02:46:00,68.7,64.0,30.09,South,180,0.0,0.0,85,0.00,,,0.00,WUHU21623XXSP,2013-06-23 06:46:00,
2013-06-23 02:51:00,68.5,63.8,30.09,South,180,0.0,0.0,85,0.00,,,0.00,WUHU21623XXSP,2013-06-23 06:51:00,
2013-06-23 02:56:00,68.5,63.8,30.09,South,180,0.0,0.0,85,0.00,,,0.00,WUHU21623XXSP,2013-06-23 06:56:00,
2013-06-23 03:01:00,68.5,63.5,30.09,South,180,0.0,0.0,84,0.00,,,0.00,WUHU21623XXSP,2013-06-23 07:01:00,
2013-06-23 03:06:00,68.4,63.3,30.09,South,180,0.0,0.0,84,0.00,,,0.00,WUHU21623XXSP,2013-06-23 07:06:00,
2013-06-23 03:11:00,68.4,63.3,30.09,South,180,0.0,0.0,84,0.00,,,0.00,WUHU21623XXSP,2013-06-23 07:11:00,
2013-06-23 03:16:00,68.4,63.3,30.09,South,180,0.0,0.0,84,0.00,,,0.00,WUHU21623XXSP,2013-06-23 07:16:00,
2013-06-23 03:21:00,68.2,63.2,30.09,South,180,0.0,0.0,84,0.00,,,0.00,WUHU21623XXSP,2013-06-23 07:21:00,
2013-06-23 03:26:00,68.2,63.2,30.09,South,180,0.0,0.0,84,0.00,,,0.00,WUHU21623XXSP,2013-06-23 07:26:00,
2013-06-23 03:31:00,68.2,63.2,30.10,South,180,0.0,0.0,84,0.00,,,0.00,WUHU21623XXSP,2013-06-23 07:31:00,
2013-06-23 03:36:00,67.8,62.8,30.10,South,180,0.0,0.0,84,0.00,,,0.00,WUHU21623XXSP,2013-06-23 07:36:00,
2013-06-23 03:41:00,67.6,62.6,30.09,South,180,0.0,0.0,84,0.00,,,0.00,WUHU21623XXSP,2013-06-23 07:41:00,
2013-06-23 03:46:00,67.6,62.6,30.10,South,180,0.0,0.0,84,0.00,,,0.00,WUHU21623XXSP,2013-06-23 07:46:00,
2013-06-23 03:51:00,67.5,62.8,30.09,South,180,0.0,0.0,85,0.00,,,0.00,WUHU21623XXSP,2013-06-23 07:51:00,
2013-06-23 03:56:00,67.3,62.6,30.09,South,180,0.0,0.0,85,0.00,,,0.00,WUHU21623XXSP,2013-06-23 07:56:00,
2013-06-23 04:01:00,67.3,62.6,30.09,South,180,0.0,0.0,85,0.00,,,0.00,WUHU21623XXSP,2013-06-23 08:01:00,
2013-06-23 04:06:00,67.1,62.4,30.09,South,180,0.0,0.0,85,0.00,,,0.00,WUHU21623XXSP,2013-06-23 08:06:00,
2013-06-23 04:11:00,67.1,62.1,30.10,South,180,0.0,0.0,84,0.00,,,0.00,WUHU21623XXSP,2013-06-23 08:11:00,
2013-06-23 04:16:00,66.9,61.9,30.10,South,180,0.0,0.0,84,0.00,,,0.00,WUHU21623XXSP,2013-06-23 08:16:00,
2013-06-23 04:21:00,66.9,61.9,30.10,South,180,0.0,0.0,84,0.00,,,0.00,WUHU21623XXSP,2013-06-23 08:21:00,
2013-06-23 04:26:00,66.9,62.2,30.10,South,180,0.0,0.0,85,0.00,,,0.00,WUHU21623XXSP,2013-06-23 08:26:00,
2013-06-23 04:31:00,66.9,62.2,30.10,South,180,0.0,0.0,85,0.00,,,0.00,WUHU21623XXSP,2013-06-23 08:31:00,
2013-06-23 04:36:00,66.7,62.1,30.10,South,180,0.0,0.0,85,0.00,,,0.00,WUHU21623XXSP,2013-06-23 08:36:00,
2013-06-23 04:41:00,66.7,62.1,30.11,South,180,0.0,0.0,85,0.00,,,0.00,WUHU21623XXSP,2013-06-23 08:41:00,
2013-06-23 04:46:00,66.7,62.1,30.11,South,180,0.0,0.0,85,0.00,,,0.00,WUHU21623XXSP,2013-06-23 08:46:00,
2013-06-23 04:51:00,66.7,62.1,30.10,South,180,0.0,0.0,85,0.00,,,0.00,WUHU21623XXSP,2013-06-23 08:51:00,
2013-06-23 04:56:00,66.7,62.1,30.11,South,180,0.0,0.0,85,0.00,,,0.00,WUHU21623XXSP,2013-06-23 08:56:00,
2013-06-23 05:01:00,66.6,61.9,30.10,South,180,0.0,0.0,85,0.00,,,0.00,WUHU21623XXSP,2013-06-23 09:01:00,
2013-06-23 05:06:00,66.6,62.2,30.11,South,180,0.0,0.0,86,0.00,,,0.00,WUHU21623XXSP,2013-06-23 09:06:00,
2013-06-23 05:11:00,66.6,62.2,30.11,South,180,0.0,0.0,86,0.00,,,0.00,WUHU21623XXSP,2013-06-23 09:11:00,
2013-06-23 05:16:00,66.6,62.2,30.11,South,180,0.0,0.0,86,0.00,,,0.00,WUHU21623XXSP,2013-06-23 09:16:00,
2013-06-23 05:21:00,66.7,62.4,30.11,South,180,0.0,0.0,86,0.00,,,0.00,WUHU21623XXSP,2013-06-23 09:21:00,
2013-06-23 05:26:00,66.7,62.4,30.11,South,180,0.0,0.0,86,0.00,,,0.00,WUHU21623XXSP,2013-06-23 09:26:00,
2013-06-23 05:31:00,66.9,62.6,30.11,South,180,0.0,0.0,86,0.00,,,0.00,WUHU21623XXSP,2013-06-23 09:31:00,
2013-06-23 05:36:00,66.9,62.6,30.11,South,180,0.0,0.0,86,0.00,,,0.00,WUHU21623XXSP,2013-06-23 09:36:00,
2013-06-23 05:41:00,66.9,62.9,30.11,South,180,0.0,0.0,87,0.00,,,0.00,WUHU21623XXSP,2013-06-23 09:41:00,
2013-06-23 05:46:00,67.1,63.1,30.11,South,180,0.0,0.0,87,0.00,,,0.00,WUHU21623XXSP,2013-06-23 09:46:00,
2013-06-23 05:51:00,67.1,63.1,30.11,South,180,0.0,0.0,87,0.00,,,0.00,WUHU21623XXSP,2013-06-23 09:51:00,
2013-06-23 05:56:00,67.3,63.2,30.11,South,180,0.0,0.0,87,0.00,,,0.00,WUHU21623XXSP,2013-06-23 09:56:00,
2013-06-23 06:01:00,67.5,63.4,30.11,South,180,0.0,0.0,87,0.00,,,0.00,WUHU21623XXSP,2013-06-23 10:01:00,
2013-06-23 06:06:00,67.6,63.6,30.11,South,180,0.0,0.0,87,0.00,,,0.00,WUHU21623XXSP,2013-06-23 10:06:00,
2013-06-23 06:11:00,67.6,63.9,30.11,South,180,0.0,0.0,88,0.00,,,0.00,WUHU21623XXSP,2013-06-23 10:11:00,
2013-06-23 06:16:00,67.6,63.9,30.11,South,180,0.0,0.0,88,0.00,,,0.00,WUHU21623XXSP,2013-06-23 10:16:00,
2013-06-23 06:21:00,67.8,64.1,30.11,South,180,0.0,0.0,88,0.00,,,0.00,WUHU21623XXSP,2013-06-23 10:21:00,
2013-06-23 06:26:00,67.8,64.1,30.11,South,180,0.0,0.0,88,0.00,,,0.00,WUHU21623XXSP,2013-06-23 10:26:00,
2013-06-23 06:31:00,67.8,64.1,30.10,South,180,0.0,0.0,88,0.00,,,0.00,WUHU21623XXSP,2013-06-23 10:31:00,
2013-06-23 06:36:00,67.8,64.1,30.10,SSE,157,0.0,0.0,88,0.00,,,0.00,WUHU21623XXSP,2013-06-23 10:36:00,
2013-06-23 06:41:00,67.8,64.1,30.10,SSE,157,0.0,0.0,88,0.00,,,0.00,WUHU21623XXSP,2013-06-23 10:41:00,
2013-06-23 06:46:00,67.8,64.1,30.10,WSW,247,0.0,0.0,88,0.00,,,0.00,WUHU21623XXSP,2013-06-23 10:46:00,
2013-06-23 06:51:00,68.0,64.3,30.10,SSW,202,0.0,0.0,88,0.00,,,0.00,WUHU21623XXSP,2013-06-23 10:51:00,
2013-06-23 06:56:00,68.2,64.8,30.11,South,180,0.4,0.4,89,0.00,,,0.00,WUHU21623XXSP,2013-06-23 10:56:00,
2013-06-23 07:01:00,68.2,64.8,30.11,South,180,0.0,0.4,89,0.00,,,0.00,WUHU21623XXSP,2013-06-23 11:01:00,
2013-06-23 07:06:00,68.2,64.8,30.12,South,180,0.0,0.0,89,0.00,,,0.00,WUHU21623XXSP,2013-06-23 11:06:00,
2013-06-23 07:11:00,68.2,64.8,30.12,South,180,0.0,0.0,89,0.00,,,0.00,WUHU21623XXSP,2013-06-23 11:11:00,
2013-06-23 07:16:00,68.2,64.8,30.12,South,180,0.0,0.0,89,0.00,,,0.00,WUHU21623XXSP,2013-06-23 11:16:00,
2013-06-23 07:21:00,68.2,64.8,30.12,South,180,0.0,0.0,89,0.00,,,0.00,WUHU21623XXSP,2013-06-23 11:21:00,
2013-06-23 07:26:00,68.4,65.0,30.11,South,180,3.4,3.4,89,0.00,,,0.00,WUHU21623XXSP,2013-06-23 11:26:00,
2013-06-23 07:31:00,68.5,65.1,30.11,South,180,0.0,3.4,89,0.00,,,0.00,WUHU21623XXSP,2013-06-23 11:31:00,
2013-06-23 07:36:00,68.5,65.1,30.11,SSE,157,0.0,3.4,89,0.00,,,0.00,WUHU21623XXSP,2013-06-23 11:36:00,
2013-06-23 07:41:00,68.5,65.1,30.11,South,180,0.0,0.0,89,0.00,,,0.00,WUHU21623XXSP,2013-06-23 11:41:00,
2013-06-23 07:46:00,68.5,65.1,30.12,WSW,247,0.0,0.0,89,0.00,,,0.00,WUHU21623XXSP,2013-06-23 11:46:00,
2013-06-23 07:51:00,68.7,65.3,30.12,WSW,247,0.0,0.0,89,0.00,,,0.00,WUHU21623XXSP,2013-06-23 11:51:00,
2013-06-23 07:56:00,68.5,65.1,30.13,WSW,247,0.0,0.0,89,0.00,,,0.00,WUHU21623XXSP,2013-06-23 11:56:00,
2013-06-23 08:01:00,68.7,65.3,30.13,SW,225,0.0,0.0,89,0.00,,,0.00,WUHU21623XXSP,2013-06-23 12:01:00,
2013-06-23 08:06:00,68.7,65.0,30.13,SW,225,0.0,0.0,88,0.00,,,0.00,WUHU21623XXSP,2013-06-23 12:06:00,
2013-06-23 08:11:00,68.9,65.2,30.13,SW,225,0.0,0.0,88,0.00,,,0.00,WUHU21623XXSP,2013-06-23 12:11:00,
2013-06-23 08:16:00,68.9,65.2,30.13,SW,225,0.0,0.0,88,0.00,,,0.00,WUHU21623XXSP,2013-06-23 12:16:00,
2013-06-23 08:21:00,69.1,65.3,30.13,SW,225,0.0,0.0,88,0.00,,,0.00,WUHU21623XXSP,2013-06-23 12:21:00,
2013-06-23 08:26:00,69.1,65.3,30.13,SW,225,0.0,0.0,88,0.00,,,0.00,WUHU21623XXSP,2013-06-23 12:26:00,
2013-06-23 08:31:00,69.1,65.3,30.13,SW,225,0.0,0.0,88,0.00,,,0.00,WUHU21623XXSP,2013-06-23 12:31:00,
2013-06-23 08:36:00,69.1,65.3,30.13,SW,225,0.0,0.0,88,0.00,,,0.00,WUHU21623XXSP,2013-06-23 12:36:00,
2013-06-23 08:41:00,69.3,65.5,30.13,SW,225,0.0,0.0,88,0.00,,,0.00,WUHU21623XXSP,2013-06-23 12:41:00,
2013-06-23 08:46:00,69.4,65.7,30.13,SW,225,0.0,0.0,88,0.00,,,0.00,WUHU21623XXSP,2013-06-23 12:46:00,
2013-06-23 08:51:00,69.6,65.9,30.13,South,180,0.0,0.0,88,0.00,,,0.00,WUHU21623XXSP,2013-06-23 12:51:00,
2013-06-23 08:56:00,69.6,65.9,30.13,WSW,247,0.0,0.0,88,0.00,,,0.00,WUHU21623XXSP,2013-06-23 12:56:00,
2013-06-23 09:01:00,69.6,65.9,30.13,WSW,247,0.0,0.0,88,0.00,,,0.00,WUHU21623XXSP,2013-06-23 13:01:00,
2013-06-23 09:06:00,70.0,66.2,30.12,SW,225,0.0,0.0,88,0.00,,,0.00,WUHU21623XXSP,2013-06-23 13:06:00,
2013-06-23 09:11:00,70.0,66.2,30.11,SW,225,0.0,0.0,88,0.00,,,0.00,WUHU21623XXSP,2013-06-23 13:11:00,
2013-06-23 09:16:00,70.3,66.6,30.11,WSW,247,0.0,0.0,88,0.00,,,0.00,WUHU21623XXSP,2013-06-23 13:16:00,
2013-06-23 09:21:00,70.3,66.3,30.10,WSW,247,0.0,0.0,87,0.00,,,0.00,WUHU21623XXSP,2013-06-23 13:21:00,
2013-06-23 09:26:00,70.5,66.4,30.10,South,180,4.5,4.5,87,0.00,,,0.00,WUHU21623XXSP,2013-06-23 13:26:00,
2013-06-23 09:31:00,70.7,66.6,30.10,South,180,0.0,4.5,87,0.00,,,0.00,WUHU21623XXSP,2013-06-23 13:31:00,
2013-06-23 09:36:00,70.9,66.8,30.10,SE,135,0.0,4.5,87,0.00,,,0.00,WUHU21623XXSP,2013-06-23 13:36:00,
2013-06-23 09:41:00,71.2,67.2,30.09,SE,135,0.0,0.0,87,0.00,,,0.00,WUHU21623XXSP,2013-06-23 13:41:00,
2013-06-23 09:46:00,72.3,67.9,30.10,SSE,157,0.0,0.0,86,0.00,,,0.00,WUHU21623XXSP,2013-06-23 13:46:00,
2013-06-23 09:51:00,72.9,68.4,30.09,SSE,157,2.7,2.7,86,0.00,,,0.00,WUHU21623XXSP,2013-06-23 13:51:00,
2013-06-23 09:56:00,73.2,68.5,30.09,South,180,0.0,2.7,85,0.00,,,0.00,WUHU21623XXSP,2013-06-23 13:56:00,
2013-06-23 10:01:00,73.6,68.5,30.09,South,180,0.0,0.0,84,0.00,,,0.00,WUHU21623XXSP,2013-06-23 14:01:00,
2013-06-23 10:06:00,73.9,68.8,30.08,SW,225,0.0,0.0,84,0.00,,,0.00,WUHU21623XXSP,2013-06-23 14:06:00,
2013-06-23 10:11:00,74.5,69.0,30.09,SW,225,0.0,0.0,83,0.00,,,0.00,WUHU21623XXSP,2013-06-23 14:11:00,
2013-06-23 10:16:00,74.5,69.0,30.08,South,180,0.7,0.7,83,0.00,,,0.00,WUHU21623XXSP,2013-06-23 14:16:00,
2013-06-23 10:21:00,75.2,69.4,30.08,SW,225,2.9,2.9,82,0.00,,,0.00,WUHU21623XXSP,2013-06-23 14:21:00,
2013-06-23 10:26:00,75.6,69.4,30.08,West,270,0.0,2.9,81,0.00,,,0.00,WUHU21623XXSP,2013-06-23 14:26:00,
2013-06-23 10:31:00,76.3,70.0,30.08,South,180,0.0,2.9,81,0.00,,,0.00,WUHU21623XXSP,2013-06-23 14:31:00,
2013-06-23 10:36:00,76.5,70.2,30.08,WNW,292,4.5,4.5,81,0.00,,,0.00,WUHU21623XXSP,2013-06-23 14:36:00,
2013-06-23 10:41:00,77.2,70.9,30.08,WNW,292,4.5,4.5,81,0.00,,,0.00,WUHU21623XXSP,2013-06-23 14:41:00,
2013-06-23 10:46:00,77.5,71.2,30.08,WSW,247,0.0,4.5,81,0.00,,,0.00,WUHU21623XXSP,2013-06-23 14:46:00,
2013-06-23 10:51:00,77.9,70.1,30.08,SE,135,0.0,2.9,77,0.00,,,0.00,WUHU21623XXSP,2013-06-23 14:51:00,
2013-06-23 10:56:00,78.4,70.6,30.08,WSW,247,4.9,4.9,77,0.00,,,0.00,WUHU21623XXSP,2013-06-23 14:56:00,
2013-06-23 11:01:00,78.5,70.8,30.08,ESE,112,0.0,4.9,77,0.00,,,0.00,WUHU21623XXSP,2013-06-23 15:01:00,
2013-06-23 11:06:00,78.2,70.2,30.09,ESE,112,2.9,2.9,76,0.00,,,0.00,WUHU21623XXSP,2013-06-23 15:06:00,
2013-06-23 11:11:00,78.3,69.9,30.09,NW,320,1.4,2.9,75,0.00,,,0.00,WUHU21623XXSP,2013-06-23 15:11:00,
2013-06-23 11:16:00,78.3,69.5,30.09,NW,315,1.3,2.9,74,0.00,,,0.00,WUHU21623XXSP,2013-06-23 15:16:00,
2013-06-23 11:21:00,78.2,69.1,30.09,NNW,337,2.9,2.9,73,0.00,,,0.00,WUHU21623XXSP,2013-06-23 15:21:00,
2013-06-23 11:26:00,78.3,68.7,30.09,WSW,247,4.3,4.3,72,0.00,,,0.00,WUHU21623XXSP,2013-06-23 15:26:00,
2013-06-23 11:31:00,78.3,69.1,30.09,NNW,337,0.0,4.3,73,0.00,,,0.00,WUHU21623XXSP,2013-06-23 15:31:00,
2013-06-23 11:36:00,78.2,68.6,30.08,NNW,337,3.4,4.3,72,0.00,,,0.00,WUHU21623XXSP,2013-06-23 15:36:00,
2013-06-23 11:41:00,77.9,68.4,30.09,NNW,337,3.4,3.4,72,0.00,,,0.00,WUHU21623XXSP,2013-06-23 15:41:00,
2013-06-23 11:46:00,78.3,68.8,30.08,WSW,247,1.6,3.4,72,0.00,,,0.00,WUHU21623XXSP,2013-06-23 15:46:00,
2013-06-23 11:51:00,78.2,68.7,30.09,West,270,1.8,3.4,72,0.00,,,0.00,WUHU21623XXSP,2013-06-23 15:51:00,
2013-06-23 11:56:00,78.2,67.8,30.08,SW,225,2.7,2.7,70,0.00,,,0.00,WUHU21623XXSP,2013-06-23 15:56:00,
2013-06-23 12:01:00,77.9,68.0,30.08,SW,225,2.7,2.7,71,0.00,,,0.00,WUHU21623XXSP,2013-06-23 16:01:00,
2013-06-23 12:06:00,78.3,67.6,30.08,North,0,0.0,2.7,69,0.00,,,0.00,WUHU21623XXSP,2013-06-23 16:06:00,
2013-06-23 12:11:00,78.3,67.5,30.08,NW,315,0.0,0.0,69,0.00,,,0.00,WUHU21623XXSP,2013-06-23 16:11:00,
2013-06-23 12:21:00,78.2,67.0,30.08,WSW,247,3.4,3.4,68,0.00,,,0.00,WUHU21623XXSP,2013-06-23 16:21:00,
2013-06-23 12:26:00,78.0,67.3,30.09,WNW,292,6.7,6.7,69,0.00,,,0.00,WUHU21623XXSP,2013-06-23 16:26:00,
2013-06-23 12:31:00,77.9,66.7,30.09,West,270,0.0,6.7,68,0.00,,,0.00,WUHU21623XXSP,2013-06-23 16:31:00,
2013-06-23 12:36:00,77.9,66.7,30.09,NNW,337,0.0,6.7,68,0.00,,,0.00,WUHU21623XXSP,2013-06-23 16:36:00,
2013-06-23 12:41:00,77.7,66.5,30.08,NNW,337,0.0,0.0,68,0.00,,,0.00,WUHU21623XXSP,2013-06-23 16:41:00,
2013-06-23 12:46:00,77.5,65.9,30.09,NNW,337,0.0,0.0,67,0.00,,,0.00,WUHU21623XXSP,2013-06-23 16:46:00,
2013-06-23 12:51:00,77.3,65.7,30.09,NE,45,0.0,0.0,67,0.00,,,0.00,WUHU21623XXSP,2013-06-23 16:51:00,
2013-06-23 12:56:00,77.4,65.3,30.09,WSW,247,0.0,0.0,66,0.00,,,0.00,WUHU21623XXSP,2013-06-23 16:56:00,
2013-06-23 12:57:00,77.5,65.5,30.09,SE,135,2.9,2.9,66,0.00,,,0.00,WUHU21623XXSP,2013-06-23 16:57:00,
2013-06-23 13:03:00,77.4,64.5,30.09,SE,135,2.9,2.9,64,0.00,,,0.00,WUHU21623XXSP,2013-06-23 17:03:00,
2013-06-23 13:08:00,77.2,64.3,30.09,South,180,0.0,2.9,64,0.00,,,0.00,WUHU21623XXSP,2013-06-23 17:08:00,
2013-06-23 13:13:00,77.1,64.2,30.09,South,180,0.0,0.0,64,0.00,,,0.00,WUHU21623XXSP,2013-06-23 17:13:00,
2013-06-23 13:18:00,77.4,65.0,30.09,SSW,202,0.0,0.0,65,0.00,,,0.00,WUHU21623XXSP,2013-06-23 17:18:00,
2013-06-23 13:23:00,77.3,64.4,30.09,NE,45,0.0,0.0,64,0.00,,,0.00,WUHU21623XXSP,2013-06-23 17:23:00,
2013-06-23 13:28:00,77.7,64.7,30.09,West,270,1.3,1.6,64,0.00,,,0.00,WUHU21623XXSP,2013-06-23 17:28:00,
2013-06-23 13:33:00,77.6,63.8,30.09,ESE,112,0.0,1.6,62,0.00,,,0.00,WUHU21623XXSP,2013-06-23 17:33:00,
2013-06-23 13:38:00,77.7,63.9,30.09,SW,225,0.0,1.3,62,0.00,,,0.00,WUHU21623XXSP,2013-06-23 17:38:00,
2013-06-23 13:43:00,78.0,64.6,30.09,South,180,1.6,4.5,63,0.00,,,0.00,WUHU21623XXSP,2013-06-23 17:43:00,
2013-06-23 13:48:00,77.7,63.4,30.08,WSW,247,3.6,4.5,61,0.00,,,0.00,WUHU21623XXSP,2013-06-23 17:48:00,
2013-06-23 13:53:00,77.9,63.6,30.09,WSW,247,3.6,3.6,61,0.00,,,0.00,WUHU21623XXSP,2013-06-23 17:53:00,
2013-06-23 13:58:00,78.1,63.3,30.09,SSW,202,5.8,5.8,60,0.00,,,0.00,WUHU21623XXSP,2013-06-23 17:58:00,
2013-06-23 14:03:00,78.1,63.3,30.09,SW,225,0.9,5.8,60,0.00,,,0.00,WUHU21623XXSP,2013-06-23 18:03:00,
2013-06-23 14:08:00,78.3,63.0,30.09,West,270,5.6,5.8,59,0.00,,,0.00,WUHU21623XXSP,2013-06-23 18:08:00,
2013-06-23 14:13:00,78.7,62.3,30.09,WNW,292,3.4,5.6,57,0.00,,,0.00,WUHU21623XXSP,2013-06-23 18:13:00,
2013-06-23 14:18:00,78.7,62.4,30.09,SSE,157,3.4,5.6,57,0.00,,,0.00,WUHU21623XXSP,2013-06-23 18:18:00,
2013-06-23 14:23:00,79.0,62.6,30.09,SSE,157,0.0,3.4,57,0.00,,,0.00,WUHU21623XXSP,2013-06-23 18:23:00,
2013-06-23 14:28:00,79.0,62.7,30.09,SSE,157,3.1,3.4,57,0.00,,,0.00,WUHU21623XXSP,2013-06-23 18:28:00,
2013-06-23 14:33:00,79.1,62.8,30.09,North,0,2.9,3.1,57,0.00,,,0.00,WUHU21623XXSP,2013-06-23 18:33:00,
2013-06-23 14:38:00,79.4,62.5,30.09,NNW,337,3.6,3.6,56,0.00,,,0.00,WUHU21623XXSP,2013-06-23 18:38:00,
2013-06-23 14:43:00,79.3,63.0,30.09,NW,315,0.0,3.6,57,0.00,,,0.00,WUHU21623XXSP,2013-06-23 18:43:00,
2013-06-23 14:48:00,79.8,63.4,30.09,NNW,337,3.8,3.8,57,0.00,,,0.00,WUHU21623XXSP,2013-06-23 18:48:00,
2013-06-23 14:53:00,80.0,63.1,30.09,NNW,337,3.8,3.8,56,0.00,,,0.00,WUHU21623XXSP,2013-06-23 18:53:00,
2013-06-23 14:58:00,80.1,63.2,30.09,WSW,247,0.0,3.8,56,0.00,,,0.00,WUHU21623XXSP,2013-06-23 18:58:00,
2013-06-23 15:03:00,80.1,62.6,30.08,West,270,4.7,4.7,55,0.00,,,0.00,WUHU21623XXSP,2013-06-23 19:03:00,
2013-06-23 15:08:00,80.2,63.3,30.08,NNW,337,2.2,4.7,56,0.00,,,0.00,WUHU21623XXSP,2013-06-23 19:08:00,
2013-06-23 15:13:00,80.4,63.5,30.08,West,270,0.0,4.7,56,0.00,,,0.00,WUHU21623XXSP,2013-06-23 19:13:00,
2013-06-23 15:18:00,80.6,63.7,30.08,WSW,247,5.6,5.6,56,0.00,,,0.00,WUHU21623XXSP,2013-06-23 19:18:00,
2013-06-23 15:23:00,80.8,64.4,30.08,WSW,247,5.6,5.6,57,0.00,,,0.00,WUHU21623XXSP,2013-06-23 19:23:00,
2013-06-23 15:28:00,81.0,64.5,30.08,SSE,157,0.0,5.6,57,0.00,,,0.00,WUHU21623XXSP,2013-06-23 19:28:00,
2013-06-23 15:33:00,81.0,64.6,30.07,West,279,2.0,5.6,57,0.00,,,0.00,WUHU21623XXSP,2013-06-23 19:33:00,
2013-06-23 15:38:00,81.2,64.8,30.06,ENE,67,0.0,2.5,57,0.00,,,0.00,WUHU21623XXSP,2013-06-23 19:38:00,
2013-06-23 15:43:00,81.9,65.4,30.06,NE,45,0.0,0.9,57,0.00,,,0.00,WUHU21623XXSP,2013-06-23 19:43:00,
2013-06-23 15:48:00,81.7,65.2,30.06,North,0,0.0,0.0,57,0.00,,,0.00,WUHU21623XXSP,2013-06-23 19:48:00,
2013-06-23 15:53:00,82.2,65.1,30.06,NW,315,6.9,6.9,56,0.00,,,0.00,WUHU21623XXSP,2013-06-23 19:53:00,
2013-06-23 15:58:00,82.4,65.9,30.05,NW,315,0.0,6.9,57,0.00,,,0.00,WUHU21623XXSP,2013-06-23 19:58:00,
2013-06-23 16:03:00,82.7,66.2,30.05,North,0,1.3,6.9,57,0.00,,,0.00,WUHU21623XXSP,2013-06-23 20:03:00,
2013-06-23 16:08:00,83.2,66.6,30.05,West,270,0.0,1.3,57,0.00,,,0.00,WUHU21623XXSP,2013-06-23 20:08:00,
2013-06-23 16:13:00,83.5,66.9,30.05,West,270,1.8,1.8,57,0.00,,,0.00,WUHU21623XXSP,2013-06-23 20:13:00,
2013-06-23 16:18:00,83.7,67.1,30.05,West,270,1.1,2.5,57,0.00,,,0.00,WUHU21623XXSP,2013-06-23 20:18:00,
2013-06-23 16:23:00,83.8,67.2,30.05,SW,225,0.0,2.5,57,0.00,,,0.00,WUHU21623XXSP,2013-06-23 20:23:00,
2013-06-23 16:28:00,84.1,67.5,30.04,NNW,337,0.0,1.1,57,0.00,,,0.00,WUHU21623XXSP,2013-06-23 20:28:00,
2013-06-23 16:33:00,84.6,67.9,30.04,South,183,2.3,3.6,57,0.00,,,0.00,WUHU21623XXSP,2013-06-23 20:33:00,
2013-06-23 16:38:00,84.9,68.2,30.04,SSW,202,0.0,3.6,57,0.00,,,0.00,WUHU21623XXSP,2013-06-23 20:38:00,
2013-06-23 16:43:00,85.2,68.5,30.04,SSW,202,0.0,0.7,57,0.00,,,0.00,WUHU21623XXSP,2013-06-23 20:43:00,
2013-06-23 16:48:00,85.5,68.8,30.04,NW,315,0.7,0.7,57,0.00,,,0.00,WUHU21623XXSP,2013-06-23 20:48:00,
2013-06-23 16:53:00,85.8,69.1,30.04,NW,315,0.7,0.7,57,0.00,,,0.00,WUHU21623XXSP,2013-06-23 20:53:00,
2013-06-23 16:58:00,85.9,69.2,30.04,WNW,292,0.0,0.7,57,0.00,,,0.00,WUHU21623XXSP,2013-06-23 20:58:00,
2013-06-23 17:03:00,86.0,68.4,30.04,North,0,0.0,0.0,56,0.00,,,0.00,WUHU21623XXSP,2013-06-23 21:03:00,
2013-06-23 17:08:00,85.8,68.8,30.04,SSW,202,0.0,0.0,57,0.00,,,0.00,WUHU21623XXSP,2013-06-23 21:08:00,
2013-06-23 17:13:00,85.6,68.6,30.04,SSW,202,4.7,4.7,57,0.00,,,0.00,WUHU21623XXSP,2013-06-23 21:13:00,
2013-06-23 17:18:00,85.6,68.6,30.03,NNW,337,0.9,4.7,57,0.00,,,0.00,WUHU21623XXSP,2013-06-23 21:18:00,
2013-06-23 17:23:00,85.6,68.6,30.03,WSW,258,1.6,2.7,57,0.00,,,0.00,WUHU21623XXSP,2013-06-23 21:23:00,
2013-06-23 17:28:00,85.6,69.2,30.03,North,0,0.0,2.7,58,0.00,,,0.00,WUHU21623XXSP,2013-06-23 21:28:00,
2013-06-23 17:33:00,85.6,69.2,30.04,NW,315,2.5,2.5,58,0.00,,,0.00,WUHU21623XXSP,2013-06-23 21:33:00,
2013-06-23 17:38:00,85.6,68.6,30.04,NW,315,0.0,2.5,57,0.00,,,0.00,WUHU21623XXSP,2013-06-23 21:38:00,
2013-06-23 17:43:00,85.8,68.8,30.04,WSW,247,4.3,4.3,57,0.00,,,0.00,WUHU21623XXSP,2013-06-23 21:43:00,
2013-06-23 17:48:00,85.8,68.8,30.04,WSW,247,0.0,4.3,57,0.00,,,0.00,WUHU21623XXSP,2013-06-23 21:48:00,
2013-06-23 17:54:00,85.8,68.8,30.05,SW,225,1.3,1.3,57,0.00,,,0.00,WUHU21623XXSP,2013-06-23 21:54:00,
2013-06-23 17:59:00,84.6,66.6,30.06,West,271,6.1,6.3,55,0.00,,,0.00,WUHU21623XXSP,2013-06-23 21:59:00,
2013-06-23 18:03:00,83.8,65.9,30.06,NNE,22,3.1,6.3,55,0.00,,,0.00,WUHU21623XXSP,2013-06-23 22:03:00,
2013-06-23 18:08:00,81.7,64.4,30.06,NNE,22,2.9,3.1,56,0.00,,,0.00,WUHU21623XXSP,2013-06-23 22:08:00,
2013-06-23 18:13:00,79.9,63.8,30.06,NE,45,0.0,4.0,58,0.00,,,0.00,WUHU21623XXSP,2013-06-23 22:13:00,
2013-06-23 18:18:00,79.0,63.0,30.06,WNW,292,6.6,9.6,58,0.00,,,0.00,WUHU21623XXSP,2013-06-23 22:18:00,
2013-06-23 18:23:00,78.4,63.9,30.06,WSW,247,0.0,9.6,61,0.00,,,0.00,WUHU21623XXSP,2013-06-23 22:23:00,
2013-06-23 18:29:00,77.7,64.1,30.06,NW,315,2.7,2.7,63,0.00,,,0.00,WUHU21623XXSP,2013-06-23 22:29:00,
2013-06-23 18:34:00,77.5,63.9,30.06,SSW,202,0.0,2.7,63,0.00,,,0.00,WUHU21623XXSP,2013-06-23 22:34:00,
2013-06-23 18:39:00,77.0,63.9,30.05,West,270,1.8,2.7,64,0.00,,,0.00,WUHU21623XXSP,2013-06-23 22:39:00,
2013-06-23 18:44:00,76.8,64.6,30.06,West,270,5.1,5.1,66,0.00,,,0.00,WUHU21623XXSP,2013-06-23 22:44:00,
2013-06-23 18:49:00,76.6,64.4,30.06,NNW,337,0.0,5.1,66,0.00,,,0.00,WUHU21623XXSP,2013-06-23 22:49:00,
2013-06-23 18:53:00,76.6,64.8,30.07,ESE,112,0.0,5.1,67,0.00,,,0.00,WUHU21623XXSP,2013-06-23 22:53:00,
2013-06-23 18:58:00,76.5,65.1,30.07,NNW,337,1.8,1.8,68,0.00,,,0.00,WUHU21623XXSP,2013-06-23 22:58:00,
2013-06-23 19:04:00,76.3,64.9,30.07,SSW,202,1.6,1.8,68,0.00,,,0.00,WUHU21623XXSP,2013-06-23 23:04:00,
2013-06-23 19:08:00,76.1,64.8,30.07,WNW,292,0.0,1.8,68,0.00,,,0.00,WUHU21623XXSP,2013-06-23 23:08:00,
2013-06-23 19:13:00,75.9,65.0,30.07,NW,315,0.0,1.6,69,0.00,,,0.00,WUHU21623XXSP,2013-06-23 23:13:00,
2013-06-23 19:18:00,75.7,64.8,30.06,SW,225,0.0,0.0,69,0.00,,,0.00,WUHU21623XXSP,2013-06-23 23:18:00,
2013-06-23 19:24:00,75.6,64.7,30.06,West,270,0.0,0.0,69,0.00,,,0.00,WUHU21623XXSP,2013-06-23 23:24:00,
2013-06-23 19:29:00,75.6,64.7,30.06,West,270,0.0,0.0,69,0.00,,,0.00,WUHU21623XXSP,2013-06-23 23:29:00,
2013-06-23 19:34:00,75.6,64.7,30.06,West,270,0.0,0.0,69,0.00,,,0.00,WUHU21623XXSP,2013-06-23 23:34:00,
2013-06-23 19:39:00,75.4,64.5,30.06,WSW,247,0.0,0.0,69,0.00,,,0.00,WUHU21623XXSP,2013-06-23 23:39:00,
2013-06-23 19:44:00,75.2,64.8,30.06,South,180,0.0,0.0,70,0.00,,,0.00,WUHU21623XXSP,2013-06-23 23:44:00,
2013-06-23 19:49:00,75.0,64.6,30.07,South,180,0.0,0.0,70,0.00,,,0.00,WUHU21623XXSP,2013-06-23 23:49:00,
2013-06-23 19:54:00,75.0,64.6,30.07,South,180,0.0,0.0,70,0.00,,,0.00,WUHU21623XXSP,2013-06-23 23:54:00,
2013-06-23 19:59:00,75.0,65.4,30.07,South,180,0.0,0.0,72,0.00,,,0.00,WUHU21623XXSP,2013-06-23 23:59:00,
2013-06-23 20:04:00,74.8,64.8,30.07,SSE,157,0.0,0.0,71,0.00,,,0.00,WUHU21623XXSP,2013-06-24 00:04:00,
2013-06-23 20:09:00,74.8,64.8,30.07,SSE,157,1.3,1.3,71,0.00,,,0.00,WUHU21623XXSP,2013-06-24 00:09:00,
2013-06-23 20:14:00,74.5,64.9,30.07,SSE,157,0.0,1.3,72,0.00,,,0.00,WUHU21623XXSP,2013-06-24 00:14:00,
2013-06-23 20:19:00,74.5,64.9,30.07,SSE,157,0.0,1.3,72,0.00,,,0.00,WUHU21623XXSP,2013-06-24 00:19:00,
2013-06-23 20:24:00,74.5,65.3,30.06,South,180,0.0,0.0,73,0.00,,,0.00,WUHU21623XXSP,2013-06-24 00:24:00,
2013-06-23 20:29:00,74.3,65.1,30.06,South,180,0.0,0.0,73,0.00,,,0.00,WUHU21623XXSP,2013-06-24 00:29:00,
2013-06-23 20:33:00,74.3,65.1,30.07,South,180,0.0,0.0,73,0.00,,,0.00,WUHU21623XXSP,2013-06-24 00:33:00,
2013-06-23 20:39:00,74.1,64.9,30.07,SSE,157,0.0,0.0,73,0.00,,,0.00,WUHU21623XXSP,2013-06-24 00:39:00,
2013-06-23 20:44:00,74.1,65.3,30.07,SW,225,0.0,0.0,74,0.00,,,0.00,WUHU21623XXSP,2013-06-24 00:44:00,
2013-06-23 20:49:00,74.1,65.3,30.07,SW,225,0.0,0.0,74,0.00,,,0.00,WUHU21623XXSP,2013-06-24 00:49:00,
2013-06-23 20:54:00,74.1,65.3,30.06,SW,225,0.0,0.0,74,0.00,,,0.00,WUHU21623XXSP,2013-06-24 00:54:00,
2013-06-23 20:59:00,73.9,65.2,30.07,South,180,0.0,0.0,74,0.00,,,0.00,WUHU21623XXSP,2013-06-24 00:59:00,
2013-06-23 21:04:00,73.9,65.2,30.06,South,180,0.0,0.0,74,0.00,,,0.00,WUHU21623XXSP,2013-06-24 01:04:00,
2013-06-23 21:09:00,73.8,65.4,30.06,SSE,157,0.0,0.0,75,0.00,,,0.00,WUHU21623XXSP,2013-06-24 01:09:00,
2013-06-23 21:14:00,73.8,65.4,30.05,SSE,157,0.0,0.0,75,0.00,,,0.00,WUHU21623XXSP,2013-06-24 01:14:00,
2013-06-23 21:19:00,73.6,65.2,30.06,South,180,0.0,0.0,75,0.00,,,0.00,WUHU21623XXSP,2013-06-24 01:19:00,
2013-06-23 21:24:00,73.6,65.6,30.06,SE,135,0.0,0.0,76,0.00,,,0.00,WUHU21623XXSP,2013-06-24 01:24:00,
2013-06-23 21:29:00,73.2,65.2,30.06,SSW,202,0.0,0.0,76,0.00,,,0.00,WUHU21623XXSP,2013-06-24 01:29:00,
2013-06-23 21:34:00,73.2,65.6,30.06,South,180,0.0,0.0,77,0.00,,,0.00,WUHU21623XXSP,2013-06-24 01:34:00,
2013-06-23 21:39:00,73.2,65.6,30.06,South,180,0.0,0.0,77,0.00,,,0.00,WUHU21623XXSP,2013-06-24 01:39:00,
2013-06-23 21:44:00,73.2,65.6,30.06,SSE,157,0.0,0.0,77,0.00,,,0.00,WUHU21623XXSP,2013-06-24 01:44:00,
2013-06-23 21:49:00,73.0,65.4,30.06,South,180,0.0,0.0,77,0.00,,,0.00,WUHU21623XXSP,2013-06-24 01:49:00,
2013-06-23 21:54:00,72.9,65.6,30.06,SSE,157,0.0,0.0,78,0.00,,,0.00,WUHU21623XXSP,2013-06-24 01:54:00,
2013-06-23 21:59:00,72.7,65.8,30.07,SSW,202,0.0,0.0,79,0.00,,,0.00,WUHU21623XXSP,2013-06-24 01:59:00,
2013-06-23 22:04:00,72.7,65.8,30.07,WSW,247,0.0,0.0,79,0.00,,,0.00,WUHU21623XXSP,2013-06-24 02:04:00,
2013-06-23 22:09:00,72.7,65.8,30.07,South,180,0.0,0.0,79,0.00,,,0.00,WUHU21623XXSP,2013-06-24 02:09:00,
2013-06-23 22:14:00,72.5,65.6,30.07,South,180,0.0,0.0,79,0.00,,,0.00,WUHU21623XXSP,2013-06-24 02:14:00,
2013-06-23 22:19:00,72.5,65.6,30.08,SSE,157,0.0,0.0,79,0.00,,,0.00,WUHU21623XXSP,2013-06-24 02:19:00,
2013-06-23 22:24:00,72.3,65.5,30.08,South,180,0.0,0.0,79,0.00,,,0.00,WUHU21623XXSP,2013-06-24 02:24:00,
2013-06-23 22:29:00,72.1,65.7,30.08,SSE,157,0.0,0.0,80,0.00,,,0.00,WUHU21623XXSP,2013-06-24 02:29:00,
2013-06-23 22:34:00,72.1,65.7,30.08,South,180,0.0,0.0,80,0.00,,,0.00,WUHU21623XXSP,2013-06-24 02:34:00,
2013-06-23 22:39:00,72.0,65.5,30.09,SSE,157,0.0,1.1,80,0.00,,,0.00,WUHU21623XXSP,2013-06-24 02:39:00,
2013-06-23 22:44:00,71.8,65.3,30.08,SSE,157,0.0,1.1,80,0.00,,,0.00,WUHU21623XXSP,2013-06-24 02:44:00,
2013-06-23 22:49:00,71.8,65.3,30.08,ESE,112,0.0,0.0,80,0.00,,,0.00,WUHU21623XXSP,2013-06-24 02:49:00,
2013-06-23 22:54:00,71.6,65.1,30.09,SE,135,1.1,1.1,80,0.00,,,0.00,WUHU21623XXSP,2013-06-24 02:54:00,
2013-06-23 22:59:00,71.4,65.3,30.09,South,180,0.0,1.1,81,0.00,,,0.00,WUHU21623XXSP,2013-06-24 02:59:00,
2013-06-23 23:04:00,71.4,65.3,30.09,SE,135,0.0,0.0,81,0.00,,,0.00,WUHU21623XXSP,2013-06-24 03:04:00,
2013-06-23 23:09:00,71.2,65.1,30.09,SE,135,0.2,0.2,81,0.00,,,0.00,WUHU21623XXSP,2013-06-24 03:09:00,
2013-06-23 23:14:00,71.2,65.1,30.09,SSE,157,0.0,0.2,81,0.00,,,0.00,WUHU21623XXSP,2013-06-24 03:14:00,
2013-06-23 23:19:00,71.2,65.1,30.09,SSE,157,0.0,0.0,81,0.00,,,0.00,WUHU21623XXSP,2013-06-24 03:19:00,
2013-06-23 23:24:00,71.2,65.1,30.09,SSE,157,0.0,0.0,81,0.00,,,0.00,WUHU21623XXSP,2013-06-24 03:24:00,
2013-06-23 23:29:00,71.2,65.1,30.08,SSE,157,0.0,0.0,81,0.00,,,0.00,WUHU21623XXSP,2013-06-24 03:29:00,
2013-06-23 23:34:00,70.9,64.7,30.08,SSE,157,0.0,0.0,81,0.00,,,0.00,WUHU21623XXSP,2013-06-24 03:34:00,
2013-06-23 23:39:00,70.9,65.1,30.08,SSE,157,0.0,0.0,82,0.00,,,0.00,WUHU21623XXSP,2013-06-24 03:39:00,
2013-06-23 23:44:00,70.9,65.1,30.08,SSE,157,0.0,0.0,82,0.00,,,0.00,WUHU21623XXSP,2013-06-24 03:44:00,
2013-06-23 23:49:00,70.9,65.1,30.08,WSW,239,1.5,4.0,82,0.00,,,0.00,WUHU21623XXSP,2013-06-24 03:49:00,
2013-06-23 23:54:00,70.9,65.4,30.09,SSW,202,0.0,4.0,83,0.00,,,0.00,WUHU21623XXSP,2013-06-24 03:54:00,
2013-06-23 23:59:00,70.9,65.4,30.09,SW,225,0.0,0.7,83,0.00,,,0.00,WUHU21623XXSP,2013-06-24 03:59:00,